Deutsche Windsurfing Vereinigung e.V.

Adresse :
Stadt :
Postleitzahl :
Land : Germany
Internet : www.dwsv.net
eMail : info@dwsv.net
Mobilfunkgerät :
Bootsklasse : Techno Wind Foil, RS:X, Formula Windsurfing, Raceboard, Windsurfer LT, Speed Windsurfing, iQFoil 95, TECHNO 293
Datum Veranstaltung Klasse Land Faktor No. of Races
19.04.2021 - 25.04.2021 Offenes Traininglager, Kiel Techno Wind Foil GER 0,00 0
19.04.2021 - 25.04.2021 Offenes Trainingslager, Kiel iQFoil GER 0,00 0
01.05.2021 - 02.05.2021 ABGESAGT - 46. Havel-Cup Techno 293 GER 1,00 0
01.05.2021 - 02.05.2021 ABGESAGT - Bayern-Pokal 2021 Raceboard GER 1,25 0
01.05.2021 - 02.05.2021 ABGESAGT - 46. Havel-Cup 2021 Raceboard GER 1,25 0
01.05.2021 - 02.05.2021 ABGESAGT - Bayern-Pokal Techno 293 GER 1,00 0
07.05.2021 - 09.05.2021 VERSCHOBEN - Intern. Bayerische Jugendmeisterschaft 2021 Techno 293 GER 1,20 0
08.05.2021 - 09.05.2021 VERSCHOBEN - Chiemsee-Cup Techno Wind Foil GER 0,00 0
08.05.2021 - 09.05.2021 ABGESAGT: Hamburger Meisterschaft 2020 Raceboard GER 1,20 0
08.05.2021 - 09.05.2021 ABGESAGT - Pader-Cup 2021 Raceboard GER 1,25 0
08.05.2021 - 09.05.2021 ABGESAGT - Pader-Cup Techno 293 GER 1,00 0
15.05.2021 - 16.05.2021 ABGESAGT - Rheinland-Cup 2021 Raceboard GER 1,32 0
21.05.2021 - 22.05.2021 ABGESAGT - Offenes Traininglager, Möhnesee Techno Wind Foil GER 0,00 0
23.05.2021 - 24.05.2021 Techno Wind Foil Cup Techno Wind Foil GER 1,20 0
24.05.2021 - 28.05.2021 ABGESAGT - Jugend Trainingscamp Süd iQFoil GER 0,00 0
24.05.2021 - 28.05.2021 ABGESAGT - Jugend Trainingscamp Süd Techno Wind Foil GER 0,00 0
25.05.2021 - 28.05.2021 ABGESAGT - Offenes Traininglager Techno Wind Foil GER 0,00 0
28.05.2021 Fortbildung Windfoil Tegernsee iQFoil GER 0,00 0
28.05.2021 Fortbildung Windfoil Tegernsee Techno Wind Foil GER 0,00 0
29.05.2021 - 30.05.2021 TenderCup 2021 | LM Raceboard TECHNO 293 GER 1,00
29.05.2021 - 30.05.2021 Tegernsee Foil Event Techno Wind Foil GER 1,20 0
29.05.2021 - 30.05.2021 Tegernsee Foil Event iQFoil GER 1,20 0
29.05.2021 - 30.05.2021 TenderCup 2021 | LM Raceboard Raceboard GER 1,25
02.06.2021 - 06.06.2021 Medemblik Regatta iQFoil GER 0,00 0
05.06.2021 - 06.06.2021 Techno Wind Foil Cup, Dümmer See Techno Wind Foil GER 1,20 0
12.06.2021 - 15.06.2021 Internationale Deutsche Meisterschaft iQFoil iQFoil GER 1,40 0
12.06.2021 - 13.06.2021 Strander Surf Cup 2021 Raceboard GER 1,25 7
19.06.2021 - 20.06.2021 Auesee-Cup Raceboard GER 1,25 6
19.06.2021 - 20.06.2021 Auesee-Cup TECHNO 293 GER 1,00 0
26.06.2021 - 27.06.2021 Racer of the Sea iQFoil GER 0,00 0
26.06.2021 - 27.06.2021 Racer of the Sea Techno Wind Foil GER 0,00 0
28.06.2021 - 02.07.2021 Offenes Trainingslager, Usedom Techno Wind Foil GER 0,00 0
28.06.2021 - 02.07.2021 Offenes Trainingslager, Usedom iQFoil GER 0,00 0
01.07.2021 - 31.07.2021 Verschoben: Chiemsee Cup Raceboard GER 1,25
03.07.2021 - 07.07.2021 Raceboard European Championships 2021 Raceboard POR 1,50 0
03.07.2021 - 04.07.2021 Techno Wind Foil Cup Techno Wind Foil GER 1,20 0
10.07.2021 - 11.07.2021 ABGESAGT - Immenstaader Surf-Marathon Raceboard GER 1,25 0
10.07.2021 - 11.07.2021 ABGESAGT - Immenstaader Windsurfingmarathon iQFoil GER 0,00 0
10.07.2021 - 11.07.2021 Offenes Trainingslager Techno Wind Foil GER 0,00 0
10.07.2021 - 11.07.2021 ABGESAGT - Immenstaader Windsurfingmarathon Techno 293 GER 1,00 0
17.07.2021 - 18.07.2021 DWC Sankt Peter-Ording Techno Wind Foil GER 0,00 0
17.07.2021 - 18.07.2021 DWC Sankt Peter-Ording iQFoil GER 0,00 0
17.07.2021 - 18.07.2021 Saar Surf Cup 2021 / Saarlandmeisterschaft Techno 293 GER 1,20 0
17.07.2021 - 18.07.2021 Saar Surf Cup 2021 Raceboard GER 1,32 0
22.07.2021 - 23.07.2021 DWC Sylt Techno Wind Foil GER 0,00 0
22.07.2021 - 25.07.2021 DWC Sylt iQFoil GER 0,00 0
27.07.2021 - 01.08.2021 Kids Camp Grönwohld Techno Wind Foil GER 0,00 0
02.08.2021 - 06.08.2021 Offenes Trainingslager iQFoil GER 0,00 0
07.08.2021 - 08.08.2021 Vinc Cup, Schönberg Techno Wind Foil GER 0,00 0
10.08.2021 - 15.08.2021 Techno Wind Foil International Championship, Bodrum Techno Wind Foil TUR 0,00 0
17.08.2021 - 21.08.2021 Raceboard World Championships 2021 Raceboard LAT 1,60 0
17.08.2021 - 22.08.2021 iQFoil World Championships 2021 iQFoil SUI 1,60 0
21.08.2021 - 22.08.2021 King of Wannsee / Berliner Jugend- & Jüngstenmeisterschaft Techno 293 GER 1,20 0
21.08.2021 - 22.08.2021 King of Wannsee 2021 Raceboard GER 1,25 0
21.08.2021 - 28.08.2021 T293 & Tplus European Championships 2021 Techno 293 EST 1,40 0
28.08.2021 - 29.08.2021 DWC Zinnowitz iQFoil GER 1,20 0
28.08.2021 - 29.08.2021 DWC Zinnowitz Techno Wind Foil GER 1,20 0
02.09.2021 - 05.09.2021 Intern. Alpen-Cup Wallersee iQFoil GER 1,20 0
02.09.2021 - 05.09.2021 Intern. Alpen-Cup, Wallersee Techno Wind Foil AUT 1,20 0
02.09.2021 - 05.09.2021 DWC Kühlungsborn iQFoil GER 0,00 0
02.09.2021 - 05.09.2021 DWC Kühlungsborn Techno Wind Foil GER 1,20 0
03.09.2021 - 05.09.2021 German Masters 2021 Raceboard Raceboard GER 1,32 0
03.09.2021 - 05.09.2021 Internationale Deutsche Meisterschaft 2021 Raceboard Raceboard GER 1,40 0
04.09.2021 - 12.09.2021 Kieler Woche 2021 iQFoil GER 1,30 0
10.09.2021 - 12.09.2021 DWC Kellenhusen iQFoil GER 1,20 0
11.09.2021 - 12.09.2021 Offenes Trainingslager, Kiel iQFoil GER 0,00 0
11.09.2021 - 12.09.2021 Offenes Trainingslager, Kiel Techno Wind Foil GER 0,00 0
18.09.2021 - 19.09.2021 Auesee Foil Cup Techno Wind Foil GER 1,20 0
18.09.2021 - 19.09.2021 Auesee Foil Cup iQFoil GER 1,20 0
24.09.2021 - 26.09.2021 Bundesligafinale 2021 Raceboard Raceboard GER 1,32 0
24.09.2021 - 26.09.2021 Nachwuchsbundesligafinale 2021 Techno 293 GER 0
24.09.2021 - 26.09.2021 Deutsche Jugendmeisterschaft Techno 293 TECHNO 293 GER 1,40 0
01.10.2021 Bavarian Masters Raceboard GER 1,20 0
01.10.2021 - 03.10.2021 DWC Borkum iQFoil GER 0,00 0
02.10.2021 - 03.10.2021 Chiemsee Insel-Marathon Raceboard GER 1,20 0
02.10.2021 - 09.10.2021 Trofeo Princesa Sofia Palma iQFoil ESP 0,00 0
09.10.2021 - 12.10.2021 Offenes Trainingslager iQFoil GER 0,00 0
10.10.2021 - 14.10.2021 Raceboard Masters World Championships 2021 Raceboard ESP 1,30 0
16.10.2021 - 17.10.2021 Techno Wind Foil Cup Finale, Surendorf Techno Wind Foil GER 1,40 0
23.10.2021 - 30.10.2021 T293 World Championships 2021 Techno 293 ITA 1,40 0
25.10.2021 - 30.10.2021 iQFoil European Championships 2021 iQFoil FRA 1,50 0
Mitglieder Organisation
Vorsitzender & Abteilungsleiter Longboard : Michaelis Thomas
Stellvertretender Vorsitzender & Abteilungsleiter Olympische Klasse : Götzke Michael
Abteilungsleiter Jugend : Poggemann Thomas
Abteilungsleiter Speed : Naumann Michael
Schatzmeister : Kleine Thomas
© 2013 ST Software s.r.o. (Version: 1.0.920.0)